Weather History for Gage, OK

Change the Weather History Date:

Sunday, March 17, 2013

  Actual Average Record
Temperature  
Mean Temperature 44 °F -  
Max Temperature 57 °F 62 °F 88 °F (1997)
Min Temperature 33 °F 34 °F 16 °F (1988)
Degree Days  
Heating Degree Days 21    
Moisture  
Dew Point 32 °F    
Average Humidity 72    
Maximum Humidity 86    
Minimum Humidity 49    
Precipitation  
Precipitation 0.00 in - - ()
Sea Level Pressure  
Sea Level Pressure 29.81 in    
Wind  
Wind Speed 10 mph (ENE)    
Max Wind Speed 15 mph    
Max Gust Speed 24 mph    
Visibility 10 miles    
Events      
Averages and records for this station are not official NWS values.
T = Trace of Precipitation, MM = Missing Value Source: NWS Daily Summary

Daily Weather History Graph

Daily Weather History Graph

Search for Another Location

Airport:

Trip Planner

Search our weather history database for the weather conditions in past years. The results will help you decide how hot, cold, wet, or windy it might be!

Date:

Astronomy

Mar. 17, 2013 Rise Set
Actual Time 7:46 AM CDT 7:48 PM CDT
Civil Twilight 7:21 AM CDT 8:14 PM CDT
Nautical Twilight 6:51 AM CDT 8:44 PM CDT
Astronomical Twilight 6:20 AM CDT 9:14 PM CDT
Moon 11:10 AM CDT (3/17) 12:48 AM CDT (3/17)
Length of Visible Light 12h 53m
Length of Day
12h 01m
Waxing Crescent, 31% of the Moon is Illuminated
Mar 17
Waxing Crescent
Mar 19
First Quarter
Mar 27
Full
Apr 2
Last Quarter
Apr 10
New

Hourly Weather History & Observations

Time (CDT) Temp. Windchill Dew Point Humidity Pressure Visibility Wind Dir Wind Speed Gust Speed Precip Events Conditions
12:53 AM 37.9 °F 29.6 °F 30.0 °F 73% 29.92 in 10.0 mi NNE 13.8 mph 24.2 mph N/A   Mostly Cloudy
1:53 AM 37.0 °F 28.9 °F 28.9 °F 73% 29.92 in 10.0 mi NE 12.7 mph 24.2 mph N/A   Partly Cloudy
2:53 AM 36.0 °F 26.7 °F 28.0 °F 73% 29.91 in 10.0 mi NNE 15.0 mph - N/A   Clear
3:53 AM 34.0 °F 26.0 °F 28.0 °F 79% 29.91 in 10.0 mi NNE 10.4 mph 19.6 mph N/A   Partly Cloudy
4:08 AM 33.8 °F 24.3 °F 28.4 °F 81% 29.91 in 10.0 mi NNE 13.8 mph - N/A   Mostly Cloudy
4:53 AM 33.8 °F 26.4 °F 28.4 °F 81% 29.92 in 10.0 mi North 9.2 mph - N/A   Overcast
5:53 AM 34.0 °F 26.0 °F 28.9 °F 82% 29.90 in 10.0 mi NE 10.4 mph - N/A   Overcast
6:02 AM 33.8 °F 27.0 °F 28.4 °F 81% 29.90 in 10.0 mi NE 8.1 mph - N/A   Overcast
6:53 AM 34.0 °F 25.5 °F 28.0 °F 79% 29.90 in 10.0 mi NE 11.5 mph - N/A   Overcast
7:25 AM 33.8 °F 26.4 °F 28.4 °F 81% 29.88 in 10.0 mi NNE 9.2 mph - N/A   Overcast
7:53 AM 34.0 °F 27.2 °F 28.0 °F 79% 29.89 in 10.0 mi NE 8.1 mph - N/A   Overcast
8:46 AM 35.6 °F 28.6 °F 28.4 °F 75% 29.87 in 10.0 mi NNE 9.2 mph - N/A   Overcast
8:53 AM 35.1 °F 26.9 °F 28.9 °F 78% 29.89 in 10.0 mi North 11.5 mph - N/A   Overcast
9:53 AM 36.0 °F 29.0 °F 28.9 °F 76% 29.91 in 10.0 mi North 9.2 mph - N/A   Overcast
10:53 AM 36.0 °F 31.1 °F 28.9 °F 76% 29.91 in 10.0 mi North 5.8 mph - N/A   Overcast
11:53 AM 39.0 °F 35.7 °F 30.0 °F 70% 29.89 in 10.0 mi Variable 4.6 mph - N/A   Overcast
12:53 PM 41.0 °F 38.0 °F 32.0 °F 70% 29.86 in 10.0 mi North 4.6 mph - N/A   Overcast
1:53 PM 43.0 °F 41.3 °F 33.1 °F 68% 29.81 in 10.0 mi NE 3.5 mph - N/A   Overcast
2:53 PM 45.0 °F - 34.0 °F 65% 29.76 in 10.0 mi Calm Calm - N/A   Overcast
3:14 PM 48.2 °F - 33.8 °F 58% 29.73 in 10.0 mi SE 6.9 mph - N/A   Scattered Clouds
3:53 PM 50.0 °F - 35.1 °F 57% 29.70 in 10.0 mi SSE 4.6 mph - N/A   Clear
4:53 PM 54.0 °F - 37.0 °F 53% 29.66 in 10.0 mi SSE 9.2 mph - N/A   Clear
5:53 PM 55.0 °F - 36.0 °F 49% 29.63 in 9.0 mi South 8.1 mph - N/A   Clear
6:53 PM 53.1 °F - 37.0 °F 55% 29.62 in 10.0 mi SE 11.5 mph - N/A   Clear
7:53 PM 50.0 °F - 37.9 °F 63% 29.62 in 10.0 mi SE 11.5 mph - N/A   Clear
8:53 PM 46.9 °F - 37.9 °F 71% 29.66 in 10.0 mi East 8.1 mph - N/A   Clear
9:53 PM 46.0 °F 41.4 °F 37.9 °F 73% 29.65 in 10.0 mi SE 9.2 mph - N/A   Clear
10:53 PM 43.0 °F 36.8 °F 37.9 °F 82% 29.63 in 9.0 mi SSE 11.5 mph - N/A   Clear
11:53 PM 41.0 °F - 37.0 °F 86% 29.64 in 8.0 mi Calm Calm - N/A   Partly Cloudy